Ottumwa, IA

3:54 AM CST on November 18, 2019 (GMT -0600)
Ottumwa Industrial

Weather History for KOTM - October, 2019

Change the Weather History Date:

Monday, October 21, 2019

  Actual Average Record
Temperature  
Mean Temperature 53 °F 51 °F  
Max Temperature 57 °F 62 °F 87 °F (1947)
Min Temperature 48 °F 40 °F 18 °F (1930)
Degree Days  
Heating Degree Days 12 14  
Month to date heating degree days 273 237  
Since 1 July heating degree days 289 358  
Cooling Degree Days 0 0  
Month to date cooling degree days 16 9  
Year to date cooling degree days 1095 936  
Growing Degree Days 2 (Base 50)    
Moisture  
Dew Point 46 °F    
Average Humidity 73    
Maximum Humidity 86    
Minimum Humidity 59    
Precipitation  
Precipitation 0.13 in 0.09 in 1.25 in (1900)
Month to date precipitation 2.06 1.93  
Year to date precipitation 38.26 32.42  
Sea Level Pressure  
Sea Level Pressure 29.45 in    
Wind  
Wind Speed 16 mph (SSW)    
Max Wind Speed 29 mph    
Max Gust Speed 42 mph    
Visibility 10 miles    
Events Rain , Thunderstorm    
T = Trace of Precipitation, MM = Missing Value Source: NWS Daily Summary

Daily Weather History Graph

Daily Weather History Graph

Search for Another Location

Airport or City:

Astronomy

Oct. 21, 2019 Rise Set
Actual Time 7:27 AM CDT 6:20 PM CDT
Civil Twilight 6:59 AM CDT 6:48 PM CDT
Nautical Twilight 6:27 AM CDT 7:20 PM CDT
Astronomical Twilight 5:55 AM CDT 7:52 PM CDT
Moon No Moon Rise 2:48 PM CDT (10/21)
Length of Visible Light 11h 48m
Length of Day
10h 52m
Waning Gibbous, 48% of the Moon is Illuminated
Oct 21
Waning Gibbous
Oct 27
New
Nov 4
First Quarter
Nov 12
Full
Nov 19
Last Quarter

Hourly Weather History & Observations

Time (CDT) Temp. Dew Point Humidity Pressure Visibility Wind Dir Wind Speed Gust Speed Precip Events Conditions
1:53 AM 54.0 °F 51.1 °F 90% 29.56 in 10.0 mi ESE 12.7 mph - 0.01 in Rain Light Rain
2:25 AM 54.0 °F 52.0 °F 93% 29.57 in 10.0 mi SE 8.1 mph - 0.00 in Rain , Thunderstorm Light Thunderstorms and Rain
2:53 AM 55.0 °F 52.0 °F 89% 29.56 in 10.0 mi SSE 9.2 mph - 0.00 in Rain , Thunderstorm Light Rain
3:03 AM 55.0 °F 52.0 °F 89% 29.57 in 10.0 mi SSE 10.4 mph - 0.00 in Rain , Thunderstorm Light Rain
3:17 AM 55.0 °F 53.1 °F 93% 29.55 in 10.0 mi SSW 6.9 mph 20.7 mph 0.00 in Rain Light Rain
3:53 AM 55.0 °F 52.0 °F 89% 29.48 in 10.0 mi ESE 11.5 mph - 0.01 in Rain Light Rain
4:08 AM 55.0 °F 52.0 °F 89% 29.45 in 8.0 mi ESE 15.0 mph - 0.01 in Rain Light Rain
4:53 AM 57.0 °F 53.1 °F 87% 29.37 in 10.0 mi SE 19.6 mph 29.9 mph 0.01 in Rain Light Rain
5:53 AM 55.0 °F 51.1 °F 86% 29.34 in 10.0 mi South 9.2 mph - 0.00 in   Clear
6:53 AM 55.0 °F 52.0 °F 89% 29.34 in 10.0 mi South 12.7 mph - N/A   Overcast
7:48 AM 55.4 °F 53.6 °F 94% 29.35 in 4.0 mi South 9.2 mph - 0.07 in Rain Heavy Rain
7:53 AM 55.0 °F 53.1 °F 93% 29.35 in 4.0 mi South 12.7 mph - 0.08 in Rain Rain
8:03 AM 55.0 °F 53.1 °F 93% 29.35 in 7.0 mi South 10.4 mph - 0.01 in Rain Light Rain
8:20 AM 55.0 °F 52.0 °F 89% 29.35 in 10.0 mi SW 8.1 mph - 0.01 in   Overcast
8:53 AM 54.0 °F 48.9 °F 83% 29.37 in 10.0 mi SW 8.1 mph 23.0 mph 0.01 in   Overcast
9:53 AM 54.0 °F 44.1 °F 69% 29.37 in 10.0 mi WSW 9.2 mph 20.7 mph N/A   Clear
10:53 AM 54.0 °F 41.0 °F 62% 29.38 in 10.0 mi SW 15.0 mph 32.2 mph N/A   Partly Cloudy
11:53 AM 54.0 °F 42.1 °F 64% 29.39 in 10.0 mi SW 17.3 mph 31.1 mph N/A   Mostly Cloudy
12:02 PM 54.0 °F 42.1 °F 64% 29.39 in 10.0 mi SW 17.3 mph 33.4 mph N/A   Mostly Cloudy
12:53 PM 55.0 °F 41.0 °F 59% 29.40 in 10.0 mi SSW 20.7 mph 32.2 mph N/A   Overcast
1:53 PM 53.1 °F 41.0 °F 64% 29.41 in 10.0 mi SW 20.7 mph 34.5 mph N/A   Overcast
2:53 PM 52.0 °F 37.9 °F 59% 29.43 in 10.0 mi SW 21.9 mph 39.1 mph N/A   Overcast
3:53 PM 52.0 °F 37.9 °F 59% 29.45 in 10.0 mi SW 19.6 mph 36.8 mph N/A   Overcast
4:53 PM 51.1 °F 39.0 °F 63% 29.46 in 10.0 mi SW 19.6 mph 32.2 mph N/A   Overcast
5:53 PM 52.0 °F 39.9 °F 63% 29.47 in 10.0 mi SW 15.0 mph 29.9 mph N/A   Overcast
6:53 PM 51.1 °F 41.0 °F 68% 29.49 in 10.0 mi SW 15.0 mph 26.5 mph N/A   Mostly Cloudy
7:53 PM 50.0 °F 44.1 °F 80% 29.51 in 10.0 mi SW 15.0 mph 29.9 mph 0.00 in   Overcast
8:18 PM 50.0 °F 44.1 °F 80% 29.50 in 10.0 mi SW 16.1 mph 33.4 mph N/A   Overcast
8:53 PM 51.1 °F 42.1 °F 71% 29.50 in 10.0 mi SW 24.2 mph 39.1 mph N/A   Overcast
9:42 PM 48.0 °F 41.0 °F 77% 29.53 in 10.0 mi West 24.2 mph 39.1 mph 0.00 in   Overcast
9:50 PM 48.2 °F 41.0 °F 76% 29.53 in 10.0 mi West 17.3 mph 33.4 mph 0.00 in   Overcast
9:53 PM 48.0 °F 41.0 °F 77% 29.54 in 10.0 mi WSW 18.4 mph 28.8 mph 0.00 in   Overcast
10:53 PM 48.9 °F 41.0 °F 74% 29.53 in 10.0 mi WSW 17.3 mph 27.6 mph 0.00 in   Overcast
11:53 PM 48.0 °F 42.1 °F 80% 29.55 in 10.0 mi WSW 20.7 mph 32.2 mph 0.01 in Rain Light Rain